Other Public Products
Issued by NWS Grand Forks, ND

Home | Current Version | Previous Version | Graphics & Text | Print | Product List | Glossary On
Versions: 1 2 3 4 5 6 7 8 9 10 11 12 13 14 15 16 17 18 19 20 21 22 23 24 25 26 27 28 29 30 31 32 33 34 35 36 37 38 39 40 41 42 43 44 45 46 47 48 49 50
000
FPUS83 KFGF 232010
OPUFGF
PRAIRIE TO PINES WEATHER ROUNDUP
NATIONAL WEATHER SERVICE EASTERN NORTH DAKOTA/GRAND FORKS ND
200 PM CST SUN NOV 23 2014

 **SATELLITE DATA USED TO AUGMENT SKY COVER AT AUTOMATED STATIONS**
 *****  WEATHER ACROSS EASTERN NORTH DAKOTA  *****

CITY           SKY/WX    TMP DP  RH WIND       PRES   REMARKS
GRAND FORKS    CLOUDY    36  26  67 NW15      29.43S
GRAND FORKS AF CLOUDY    34  24  65 NW14      29.44R WCI  25
GRAND CITY NWS   N/A     34 N/A N/A NW6         N/A
BUXTON         NOT AVBL
DEVILS LAKE    CLOUDY    28  16  59 N21       29.45R WCI  15
FARGO          CLOUDY    37  23  56 W23       29.46R
WAHPETON ARPT  CLOUDY    39  32  75 W17       29.46R
$$

 *****  WEATHER ACROSS CENTRAL AND WESTERN NORTH DAKOTA  *****

CITY           SKY/WX    TMP DP  RH WIND       PRES   REMARKS
JAMESTOWN      CLOUDY    27  18  69 W24G31    29.48F WCI  12
BISMARCK       CLOUDY    24  15  68 NW26G35   29.62R WCI   8
MINOT          FLURRIES  18   9  68 NW24G33   29.60R WCI   0
MINOT AFB      CLOUDY    18  10  71 NW23G33   29.60R WCI   1
GARRISON         N/A     20  12  71 NW29G38   29.60R WCI   1
WILLISTON      CLOUDY    21  12  68 NW25      29.74R WCI   4
DICKINSON      CLOUDY    24  15  68 NW36G43   29.63R WCI   6
HETTINGER      CLOUDY    27  18  69 NW38G49   29.64S WCI   9
$$

 *****  OTHER OBSERVATIONS NORTHEAST NORTH DAKOTA  *****

CITY           SKY/WX    TMP DP  RH WIND       PRES   REMARKS
WALHALLA         N/A     19  19 100 NW21      29.50R WCI   3
LANGDON        CLOUDY    19  18  93 NW17      29.46R FOG     WCI   4
CAVALIER       MIX PCPN  23  21  93 N18       29.48R WCI   9
GRAFTON        MIX PCPN  25  25 100 N15G21    29.46R WCI  12
CANDO          FAIR      19  18  93 N18G26    29.51R FOG     WCI   4
FORT TOTTEN      N/A     26  19  74 NW7       29.95S WCI  18
ROLLA          FLURRIES  16  14  93 N24G30    29.51R WCI  -3
RUGBY          LGT SNOW  18  14  86 NW21      29.54R WCI   1
 ***** THE ABOVE OBSERVATIONS ARE NON NWS ARE NOT QUALITY
        CONTROLLED AND MAY MIS-REPORT RAIN FOR SNOW...
$$

 *****  OTHER OBSERVATIONS SOUTHEAST NORTH DAKOTA *****

CITY           SKY/WX    TMP DP  RH WIND       PRES   REMARKS
COOPERSTOWN    NOT AVBL
VALLEY CITY    FLURRIES  30  19  64 W28G35    29.46F WCI  16
OAKES            N/A     32  25  74 W26G33    29.49R WCI  18
GWINNER        MOCLDY    36  28  75 W23G31    29.49R
SHEYENNE NWR     N/A     37  26  64 NW14      29.95S
BUFFALO        NOT AVBL
WYNDMERE         N/A     37  28  70 NW16        N/A
 ***** THE ABOVE OBSERVATIONS ARE NON NWS ARE NOT QUALITY
       CONTROLLED AND MAY MIS-REPORT RAIN FOR SNOW...
$$

  *****  WEATHER ACROSS NORTHERN MINNESOTA  *****

CITY           SKY/WX    TMP DP  RH WIND       PRES   REMARKS
FLAG ISLAND    SNOW      32  30  93 S6        29.37F VSB 1/4
WARROAD        LGT RAIN  36  32  87 CALM      29.38F
ROSEAU         CLOUDY    37  32  81 W5        29.38S
HALLOCK        CLOUDY    25  23  93 NW17G23   29.46R FOG     WCI  11
THF RVR FALLS  CLOUDY    37  34  87 SW3       29.40S
HALSTAD          N/A     36  21  55 W20         N/A
FOSSTON        CLOUDY    36  34  93 SW6       29.41R
BAUDETTE       CLOUDY    35  33  92 CALM      29.38S FOG
WASKISH        CLOUDY    37  34  87 SW6       29.39S
CROOKSTON      CLOUDY    37  30  75 NW24      29.43R
$$
  *****  WEATHER ACROSS CENTRAL AND WEST MINNESOTA  *****

CITY           SKY/WX    TMP DP  RH WIND       PRES   REMARKS
BEMIDJI        DRIZZLE   38  33  81 W3        29.39S
PARK RAPIDS    CLOUDY    40  34  79 W6        29.40F
WADENA         CLOUDY    37  34  87 W7        29.41F
DETROIT LAKES  PTSUNNY   39  36  87 W7        29.42F
MOORHEAD       CLOUDY    37  28  70 W17       29.46R
FERGUS FALLS   CLOUDY    39  36  87 W5        29.46F
ELBOW LAKE       N/A     37  34  92 W8        29.44F
MORRIS MN        N/A     39  34  81 NW12      29.44F
STAPLES        CLOUDY    37  34  87 W7        29.41F
WHEATON        PTSUNNY   37  30  75 W15G26    29.48F
$$
  *****  WEATHER ELSEWHERE ACROSS MINNESOTA  *****

CITY           SKY/WX    TMP DP  RH WIND       PRES   REMARKS
DULUTH         CLOUDY    40  37  89 W3        29.38R FOG
INTRNTL FALLS  CLOUDY    36  32  85 SW5       29.38R
ELY            CLOUDY    37  36  93 W5        29.36F FOG
CLOQUET        CLOUDY    39  37  93 W5        29.39R FOG
BRAINERD       CLOUDY    38  35  89 CALM      29.40F
HIBBING        CLOUDY    37  34  89 W5        29.38F FOG
ALEXANDRIA     CLOUDY    37  34  89 W10       29.43F
SAINT CLOUD    LGT RAIN  38  35  89 W7        29.42S FOG
MINNEAPOLIS    CLOUDY    44  39  82 NW6       29.39F
$$

  *****  WEATHER ACROSS SOUTH DAKOTA  *****

CITY           SKY/WX    TMP DP  RH WIND       PRES   REMARKS
SIOUX FALLS    CLOUDY    42  34  73 NW17      29.51F
BROOKINGS      NOT AVBL
WATERTOWN      CLOUDY    37  29  72 NW16      29.48F
HURON          CLOUDY    40  31  70 NW16      29.55F
SISSETON         N/A     39  31  72 N17       29.46F
ABERDEEN       CLOUDY    37  25  61 NW23G35   29.52F
MITCHELL       NOT AVBL
PIERRE         CLOUDY    40  27  59 NW30G39   29.60F
MOBRIDGE       PTSUNNY   33  21  61 NW28G40   29.57R WCI  20
RAPID CITY     MOSUNNY   40  21  46 NW35G49   29.69R
$$

  *****  SOME WEATHER IN NEARBY STATES *****

CITY           SKY/WX    TMP DP  RH WIND       PRES   REMARKS
GLASGOW MT     LGT SNOW  26  18  71 NW20      29.83S WCI  12
GREAT FALLS MT SUNNY     42  16  34 W25G33    29.87F
CHEYENNE WY    MOSUNNY   35  12  38 NW23G35   29.77R WCI  23
SCOTTSBLUFF NE SUNNY     45  12  26 NW31G44   29.76F
OMAHA NE       CLOUDY    46  37  71 N25G33    29.48S
DES MOINES IA  CLOUDY    54  51  90 SE3       29.35F
DAVENPORT IA   RAIN      51  49  92 SE14      29.41F FOG
CHICAGO IL     LGT RAIN  51  48  89 SE10      29.52F
EAU CLAIRE WI  CLOUDY    49  48  97 S7        29.39F FOG
LA CROSSE WI   LGT RAIN  50  48  93 S5        29.40F FOG
$$

  *****  SOME NATIONAL WEATHER *****

CITY           SKY/WX    TMP DP  RH WIND       PRES   REMARKS
LA GUARDIA NY  PTSUNNY   55  24  30 SW8       30.14S
RALEIGH NC     CLOUDY    54  50  86 E5        30.05F
ATLANTA GA     LGT RAIN  53  51  93 E15       29.76F FOG
NEW ORLEANS LA PTSUNNY   73  59  61 SW16      29.64F
OKLAHOMA CITY  PTSUNNY   61  45  55 NW16G24   29.35R
ALBUQUERQUE NM PTSUNNY   46  11  24 NW36G48   29.87S
SALT LAKE CITY PTSUNNY   37  24  59 W16       30.23F
LOS ANGELES CA MOSUNNY   78  24  13 CALM      30.09F
BOISE ID       PTSUNNY   45  29  53 NW6       30.28F
SEATTLE WA     PTSUNNY   52  46  80 SW8       30.12R
$$

*** WEATHER ACROSS MANITOBA...SASKATCHEWAN AND ONTARIO ***
                ***ONTARIO***

CITY           SKY/WX    TMP DP  RH WIND       PRES   REMARKS
GERALDTON      FRZ DRZL  25  25 100 NE8       29.49F VSB 5/8 WCI  16
THUNDER BAY    DRZL/FOG  39  39 100 E5        29.41S VSB 1/4
SIOUX LOOKOUT  DRIZZLE   34  34 100 E3        29.39F FOG
TORONTO        PTSUNNY   46  45  93 SE6       29.87F
BIG TROUT LK   LGT SNOW   5   0  78 NE5       29.77F WCI  -4
PICKLE LAKE    FRZ DRZL  16  14  93 E10       29.50F WCI   3
DRYDEN         CLOUDY    34  32  93 CALM      29.38F FOG
KENORA         CLOUDY    34  32  93 S5        29.38S DRFTSNOW
$$
                *** MANITOBA***

CITY           SKY/WX    TMP DP  RH WIND       PRES   REMARKS
BRANDON        FLURRIES  14   9  79 NW17      29.59R WCI  -3
DAUPHIN        FLURRIES  12   7  79 N17       29.69R WCI  -5
ISLAND LAKE    NOT AVBL
PILOT MOUND      N/A     14  12  92 NW17G23     N/A  WCI  -3
THE PAS        MOSUNNY    3  -4  72 N9        29.90R WCI -11
THOMPSON       MOSUNNY   -8 -15  71 NE5       29.94F WCI -19
WINNIPEG       FRZ DRZL  23  21  93 NW18      29.46R VSB 3/4 WCI   9
LYNN LAKE      PTSUNNY   -6  -9  84 VRB2      29.91S
CHURCHILL      CRYSTALS  -9 -17  70 W7        29.97S WCI -24
GILLAM         PTCLDY   -15 -20  76 W7        29.96S WCI -31
$$
                ***SASKATCHEWAN***

CITY           SKY/WX    TMP DP  RH WIND       PRES   REMARKS
ESTEVAN        LGT SNOW  18  10  73 NW22G31   29.68R DRFTSNOWWCI   0
KINDERSLEY     MOSUNNY   18  12  79 W8        29.81F WCI   7
LLOYDMINSTER   MOSUNNY   14   9  79 W8        29.78R WCI   3
PRINCE ALBERT  CLOUDY     7   0  72 VRB2      29.87F
REGINA         MOSUNNY   14  10  85 NW18      29.77S WCI  -3



USA.gov is the U.S. government's official web portal to all federal, state and local government web resources and services.